General Aviation Weather

Text Reports

Enter one or more of the following location identifiers separated by a space:

Zip Code, Four-Character ICAO or Three-Character IATA airport codes.

METAR - Aviation Routine Weather Report
PAII - Egegik, Alaska
Updated at 3:56 PM GMT on March 05, 2015 (6:56 AM AKST):
METAR PAII 051556Z AUTO 21004KT 2SM SCT002 BKN120 M02/M04 A2990 RMK AO1
TAF - Terminal Area Forecast
PAII - Egegik, Alaska
Updated at 3:56 PM GMT on March 05, 2015 (6:56 AM AKST):
No TAF is currently available for this location.
Decoded:
No decoded TAF is available.
PIREP - Pilot Weather Report
PAII - Egegik, Alaska
Updated at 3:56 PM GMT on March 05, 2015 (6:56 AM AKST):
No PIREP is currently available for this location.
AIRMET - Airmens Meteorological Information
PAII - Egegik, Alaska
Updated at 3:56 PM GMT on March 05, 2015 (6:56 AM AKST):
No AIRMET is currently available for this location.
SIGMET - Significant Meteorological Information
PAII - Egegik, Alaska
Updated at 3:56 PM GMT on March 05, 2015 (6:56 AM AKST):
No SIGMET is currently available for this location.
NOTAM - Notice to Airmen
PAII - Egegik, Alaska
Updated at 3:56 PM GMT on March 05, 2015 (6:56 AM AKST):
No NOTAM is currently available for this location.
Forecast Area
PAII - Egegik, Alaska
Updated at 3:56 PM GMT on March 05, 2015 (6:56 AM AKST):
No NOTAM is currently available for this location.
Aviation Weather Maps